Location: Unspecified
(42.9300°N, 71.1866°W)
Time: 09:01:26
(UTC-04:00)

Cosmos 1674 - Visible Passes

Search period start: 06 May 2016 00:00
Search period end: 16 May 2016 00:00
Orbit: 500 x 527 km, 82.5° (Epoch: 05 May)

Date Brightness Start Highest point End Pass type
(mag) Time Alt. Az. Time Alt. Az. Time Alt. Az.
06 May 4.7 03:36:27 10° SSE 03:39:38 26° E 03:42:49 10° NNE visible
07 May 5.0 03:21:08 10° SE 03:24:02 21° E 03:26:57 10° NE visible
07 May 3.9 04:56:27 10° SW 04:59:35 24° WNW 05:02:43 10° NNW visible
08 May 5.2 03:05:55 10° SE 03:08:28 17° E 03:11:00 10° NE visible
08 May 3.7 04:40:39 11° SW 04:43:54 30° WNW 04:47:15 10° NNW visible
09 May 5.4 02:50:50 10° ESE 02:52:53 14° E 02:54:56 10° NE visible
09 May 3.3 04:25:26 15° SW 04:28:12 37° WNW 04:31:44 10° N visible
10 May 5.5 02:36:02 10° ESE 02:37:19 11° E 02:38:35 10° ENE visible
10 May 3.0 04:10:11 20° SW 04:12:31 46° WNW 04:16:10 10° N visible
11 May 2.7 03:54:54 26° SSW 03:56:51 58° W 04:00:34 10° N visible
12 May 2.6 03:39:35 33° SSW 03:41:11 74° W 03:44:57 10° N visible
13 May 2.6 03:24:14 40° S 03:25:31 87° E 03:29:17 10° N visible
14 May 2.8 03:08:52 45° SSE 03:09:51 69° E 03:13:36 10° NNE visible
15 May 3.2 02:53:29 45° SE 02:54:13 54° E 02:57:53 10° NNE visible
15 May 4.9 04:29:27 10° W 04:30:14 10° WNW 04:31:01 10° NW visible
